Home > Weather > Fort Worth > Past weeks

Flag for U.S.A. Weather for the Past 2 Weeks in Fort Worth, Texas, U.S.A.

Now
57 °F

Clear.


Feels Like: 56 °F
Forecast: 51 / 72 °F
Wind: 7 mph from Southwest

Location: Meacham International Airport

Current Time: Feb 11, 2016 at 5:23:59 AM

Latest Report: Feb 11, 2016 at 4:53 AM


Visibility: 10 mi

Pressure: 30.01 "Hg

Humidity: 33%

Dew point: 28 °F

Location of Fort WorthLocation

Historic Weather in Fort Worth — Graph

°F

Fort Worth Temperature Yesterday

Maximum temperature yesterday: 76 °F (at 3:53 PM)
Minimum temperature yesterday: 35 °F (at 6:53 AM)
Average temperature yesterday: 56 °F

High & Low Weather Summary for the Past Weeks

 TemperatureHumidityPressure
High79 °F (Jan 30, 3:53 PM)87% (Jan 31, 7:53 AM)30.51 "Hg (Jan 31, 7:53 AM)
Low32 °F (Jan 27, 6:53 AM)13% (Feb 8, 3:53 PM)29.49 "Hg (Feb 1, 4:53 PM)
Average52 °F46%30.10 "Hg
* Reported Jan 27 3:53 AM — Feb 11 3:53 AM, Fort Worth, Weather by CustomWeather, © 2016

Note: Actual official high and low records may vary slightly from our data, if they occured in-between our weather recording intervals... More about our weather records

Advertising

Fort Worth Weather History for the Previous 24 Hours

 ConditionsComfort  
Time TempWeatherWind HumidityBarometerVisibility
3:53 AM
Thu, Feb 11
59 °FClear.10 mph31%30.00 "Hg10 mi
2:53 AM60 °FClear.10 mph30%30.01 "Hg10 mi
1:53 AM56 °FClear.8 mph37%30.01 "Hg10 mi
12:53 AM58 °FClear.8 mph36%30.01 "Hg10 mi
11:53 PM
Wed, Feb 10
59 °FClear.9 mph38%30.02 "Hg10 mi
10:53 PM60 °FClear.9 mph38%30.03 "Hg10 mi
9:53 PM60 °FClear.10 mph36%30.05 "Hg10 mi
8:53 PM63 °FClear.12 mph30%30.05 "Hg10 mi
7:53 PM64 °FClear.7 mph29%30.06 "Hg10 mi
6:53 PM66 °FClear.9 mph27%30.06 "Hg10 mi
5:53 PM73 °FSunny.10 mph20%30.06 "Hg10 mi
4:53 PM76 °FSunny.16 mph18%30.07 "Hg10 mi
3:53 PM76 °FSunny.13 mph19%30.10 "Hg10 mi
2:53 PM74 °FSunny.14 mph21%30.13 "Hg10 mi
1:53 PM71 °FSunny.15 mph25%30.17 "Hg10 mi
12:53 PM66 °FSunny.15 mph28%30.22 "Hg10 mi
11:53 AM62 °FSunny.14 mph30%30.27 "Hg10 mi
10:53 AM58 °FSunny.14 mph35%30.31 "Hg10 mi
9:53 AM50 °FSunny.14 mph44%30.33 "Hg10 mi
8:53 AM44 °FSunny.8 mph58%30.33 "Hg10 mi
7:53 AM36 °FSunny.No wind73%30.33 "Hg10 mi
6:53 AM35 °FClear.3 mph78%30.33 "Hg10 mi
5:53 AM38 °FClear.No wind70%30.32 "Hg10 mi
Weather by CustomWeather, © 2016

See weather overviewHow to use our weather pages